Ellensburg, WA

2:51 AM PDT on September 27, 2016 (GMT -0700)
Bowers

Weather History for KELN - October, 2011

Change the Weather History Date:

Friday, October 7, 2011

  Actual Average (KYKM) Record (KYKM)
Temperature  
Mean Temperature 56 °F 53 °F  
Max Temperature 63 °F 69 °F 86 °F (1980)
Min Temperature 48 °F 37 °F 25 °F (1974)
Degree Days  
Heating Degree Days 10 12  
Month to date heating degree days 78  
Since 1 July heating degree days 286  
Cooling Degree Days 0 0  
Month to date cooling degree days 0  
Year to date cooling degree days 472  
Growing Degree Days 6 (Base 50)    
Moisture  
Dew Point 41 °F    
Average Humidity 60    
Maximum Humidity 74    
Minimum Humidity 48    
Precipitation  
Precipitation 0.00 in 0.02 in 0.40 in (1985)
Month to date precipitation 0.09  
Year to date precipitation 5.22  
Snow  
Snow 0.00 in 0.00 in 0.00 in (2002)
Month to date snowfall 0.0  
Year to date snowfall 8.6  
Since 1 July snowfall 0.0  
Snow Depth -    
Sea Level Pressure  
Sea Level Pressure 30.03 in    
Wind  
Wind Speed 23 mph (WNW)    
Max Wind Speed 33 mph    
Max Gust Speed 46 mph    
Visibility 10 miles    
Events      
T = Trace of Precipitation, MM = Missing Value Source: NWS Daily Summary

Daily Weather History Graph

Daily Weather History Graph

Search for Another Location

Airport or City:

Trip Planner

Search our weather history database for the weather conditions in past years. The results will help you decide how hot, cold, wet, or windy it might be!

Date:

Astronomy

Oct. 07, 2011 Rise Set
Actual Time 7:08 AM PDT 6:30 PM PDT
Civil Twilight 6:38 AM PDT 7:00 PM PDT
Nautical Twilight 6:03 AM PDT 7:35 PM PDT
Astronomical Twilight 5:27 AM PDT 8:11 PM PDT
Moon 4:27 PM PDT (10/7) 2:48 AM PDT (10/7)
Length of Visible Light 12h 22m
Length of Day
11h 21m
Waxing Gibbous, 84% of the Moon is Illuminated
Oct 7
Waxing Gibbous
Oct 11
Full
Oct 19
Last Quarter
Oct 26
New
Nov 2
First Quarter

Hourly Weather History & Observations

Time (PDT) Temp. Dew Point Humidity Pressure Visibility Wind Dir Wind Speed Gust Speed Precip Events Conditions
12:53 AM 53.1 °F 41.0 °F 64% 29.91 in 10.0 mi WNW 21.9 mph 28.8 mph N/A   Clear
1:53 AM 53.1 °F 42.1 °F 66% 29.92 in 10.0 mi WNW 24.2 mph 32.2 mph N/A   Clear
2:53 AM 54.0 °F 41.0 °F 62% 29.91 in 10.0 mi WNW 26.5 mph 38.0 mph N/A   Clear
3:53 AM 54.0 °F 41.0 °F 62% 29.91 in 10.0 mi WNW 31.1 mph 40.3 mph N/A   Mostly Cloudy
4:53 AM 54.0 °F 41.0 °F 62% 29.91 in 10.0 mi WNW 33.4 mph 46.0 mph N/A   Overcast
5:53 AM 53.1 °F 39.9 °F 61% 29.95 in 10.0 mi WNW 25.3 mph 33.4 mph N/A   Mostly Cloudy
6:53 AM 53.1 °F 39.0 °F 59% 29.98 in 10.0 mi WNW 24.2 mph 34.5 mph N/A   Clear
7:53 AM 53.1 °F 39.9 °F 61% 30.01 in 10.0 mi NW 17.3 mph 29.9 mph N/A   Clear
10:53 AM 59.0 °F 42.1 °F 53% 30.01 in 10.0 mi WNW 32.2 mph 40.3 mph N/A   Clear
11:53 AM 61.0 °F 43.0 °F 52% 30.03 in 10.0 mi WNW 25.3 mph 36.8 mph N/A   Clear
12:53 PM 62.1 °F 43.0 °F 50% 30.02 in 10.0 mi WNW 26.5 mph 33.4 mph N/A   Clear
1:53 PM 63.0 °F 43.0 °F 48% 30.02 in 10.0 mi WNW 24.2 mph 35.7 mph N/A   Clear
2:53 PM 63.0 °F 43.0 °F 48% 30.03 in 10.0 mi WNW 24.2 mph 35.7 mph N/A   Clear
3:53 PM 62.1 °F 43.0 °F 50% 30.05 in 10.0 mi WNW 29.9 mph 38.0 mph N/A   Clear
4:53 PM 60.1 °F 42.1 °F 51% 30.07 in 10.0 mi WNW 24.2 mph 34.5 mph N/A   Clear
5:53 PM 57.0 °F 42.1 °F 57% 30.09 in 10.0 mi NW 15.0 mph 27.6 mph N/A   Clear
6:53 PM 54.0 °F 42.1 °F 64% 30.12 in 10.0 mi NW 17.3 mph - N/A   Clear
7:53 PM 53.1 °F 42.1 °F 66% 30.13 in 10.0 mi NW 15.0 mph - N/A   Clear
8:53 PM 52.0 °F 41.0 °F 66% 30.15 in 10.0 mi NW 15.0 mph - N/A   Clear
9:53 PM 48.9 °F 39.9 °F 71% 30.16 in 10.0 mi NW 8.1 mph - N/A   Clear
10:53 PM 48.0 °F 39.9 °F 74% 30.17 in 10.0 mi NW 10.4 mph - N/A   Clear
11:53 PM 48.0 °F 39.0 °F 71% 30.17 in 10.0 mi WNW 11.5 mph - N/A   Clear